Weather History for KMZH - May, 2013

Change the Weather History Date:

Saturday, May 18, 2013

  Actual Average Record
Temperature  
Mean Temperature 47 °F -  
Max Temperature 53 °F 70 °F - (-1)
Min Temperature 41 °F 39 °F - (-1)
Degree Days  
Heating Degree Days 18    
Moisture  
Dew Point 40 °F    
Average Humidity 79    
Maximum Humidity 87    
Minimum Humidity 61    
Precipitation  
Precipitation 0.05 in - - ()
Sea Level Pressure  
Sea Level Pressure 29.92 in    
Wind  
Wind Speed 4 mph (NE)    
Max Wind Speed 8 mph    
Max Gust Speed -    
Visibility 6 miles    
Events Rain , Thunderstorm    
Averages and records for this station are not official NWS values.
T = Trace of Precipitation, MM = Missing Value Source: NWS Daily Summary

Daily Weather History Graph

Daily Weather History Graph

Search for Another Location

Airport or City:

Trip Planner

Search our weather history database for the weather conditions in past years. The results will help you decide how hot, cold, wet, or windy it might be!

Date:

Astronomy

May. 18, 2013 Rise Set
Actual Time 5:34 AM CDT 8:42 PM CDT
Civil Twilight 4:58 AM CDT 9:18 PM CDT
Nautical Twilight 4:11 AM CDT 10:04 PM CDT
Astronomical Twilight 3:14 AM CDT 11:02 PM CDT
Moon 1:22 PM CDT (5/18) 1:51 AM CDT (5/18)
Length of Visible Light 16h 20m
Length of Day
15h 08m
First Quarter, 55% of the Moon is Illuminated
May 18
First Quarter
May 24
Full
May 31
Last Quarter
Jun 8
New
Jun 16
First Quarter

Hourly Weather History & Observations

Time (CDT) Temp. Windchill Dew Point Humidity Pressure Visibility Wind Dir Wind Speed Gust Speed Precip Events Conditions
12:13 AM 44.6 °F 42.2 °F 32.0 °F 61% 30.00 in 10.0 mi ENE 4.6 mph - N/A   Overcast
12:33 AM 44.6 °F 42.2 °F 32.0 °F 61% 30.01 in 10.0 mi ENE 4.6 mph - N/A   Overcast
12:53 AM 44.6 °F 43.1 °F 32.0 °F 61% 30.00 in 10.0 mi NE 3.5 mph - N/A   Overcast
1:13 AM 44.6 °F 43.1 °F 32.0 °F 61% 30.00 in 10.0 mi ENE 3.5 mph - N/A   Overcast
1:33 AM 42.8 °F 41.1 °F 33.8 °F 70% 30.00 in 10.0 mi ENE 3.5 mph - 0.01 in Rain Light Rain
1:53 AM 42.8 °F 41.1 °F 33.8 °F 70% 29.98 in 10.0 mi ENE 3.5 mph - 0.01 in Thunderstorm Thunderstorm
2:13 AM 42.8 °F 40.1 °F 35.6 °F 76% 29.98 in 10.0 mi ENE 4.6 mph - N/A   Overcast
2:33 AM 42.8 °F 40.1 °F 35.6 °F 76% 29.99 in 10.0 mi ENE 4.6 mph - N/A Rain Light Rain
2:53 AM 42.8 °F 39.3 °F 35.6 °F 76% 29.98 in 10.0 mi NE 5.8 mph - N/A Rain Light Rain
3:13 AM 41.0 °F 38.0 °F 35.6 °F 81% 29.97 in 7.0 mi ENE 4.6 mph - 0.01 in Rain Light Rain
3:33 AM 41.0 °F 39.0 °F 35.6 °F 81% 29.97 in 10.0 mi East 3.5 mph - 0.01 in   Light Drizzle
3:53 AM 41.0 °F 39.0 °F 35.6 °F 81% 29.96 in 10.0 mi ENE 3.5 mph - 0.02 in   Scattered Clouds
4:13 AM 41.0 °F 39.0 °F 35.6 °F 81% 29.97 in 10.0 mi ENE 3.5 mph - N/A   Mostly Cloudy
4:33 AM 41.0 °F 39.0 °F 35.6 °F 81% 29.97 in 10.0 mi ENE 3.5 mph - N/A   Overcast
4:53 AM 41.0 °F - 35.6 °F 81% 29.98 in 10.0 mi Calm Calm - N/A   Overcast
5:13 AM 41.0 °F - 35.6 °F 81% 29.97 in 10.0 mi Calm Calm - N/A Rain Light Rain
5:33 AM 41.0 °F - 35.6 °F 81% 29.98 in 7.0 mi Calm Calm - N/A Rain Light Rain
5:53 AM 41.0 °F - 35.6 °F 81% 29.97 in 7.0 mi Calm Calm - N/A Rain Light Rain
6:13 AM 42.8 °F - 35.6 °F 76% 29.97 in 5.0 mi Calm Calm - 0.01 in Rain Light Rain
6:33 AM 42.8 °F - 37.4 °F 81% 29.98 in 5.0 mi Calm Calm - 0.01 in Rain Light Rain
6:53 AM 41.0 °F 38.0 °F 35.6 °F 81% 29.98 in 3.0 mi NE 4.6 mph - 0.01 in Rain Rain
7:13 AM 42.8 °F - 37.4 °F 81% 29.98 in 2.0 mi Calm Calm - N/A Rain Rain
7:33 AM 42.8 °F 41.1 °F 37.4 °F 81% 29.96 in 1.5 mi NE 3.5 mph - N/A Rain Rain
7:53 AM 42.8 °F 39.3 °F 37.4 °F 81% 29.94 in 2.5 mi ENE 5.8 mph - 0.01 in Rain Light Rain
8:13 AM 44.6 °F - 39.2 °F 81% 29.95 in 4.0 mi Calm Calm - N/A   Haze
8:33 AM 44.6 °F 41.4 °F 41.0 °F 87% 29.95 in 4.0 mi ESE 5.8 mph - N/A   Haze
8:53 AM 44.6 °F 43.1 °F 41.0 °F 87% 29.96 in 4.0 mi ENE 3.5 mph - N/A   Haze
9:13 AM 44.6 °F 42.2 °F 41.0 °F 87% 29.96 in 3.0 mi NNE 4.6 mph - N/A   Haze
9:33 AM 42.8 °F 40.1 °F 37.4 °F 81% 29.96 in 3.0 mi NE 4.6 mph - N/A   Haze
9:53 AM 44.6 °F 42.2 °F 39.2 °F 81% 29.96 in 3.0 mi ENE 4.6 mph - N/A   Haze
10:13 AM 44.6 °F 41.4 °F 39.2 °F 81% 29.93 in 4.0 mi ENE 5.8 mph - N/A   Haze
10:33 AM 44.6 °F 43.1 °F 41.0 °F 87% 29.93 in 3.0 mi ENE 3.5 mph - N/A Rain Rain
10:53 AM 44.6 °F 42.2 °F 41.0 °F 87% 29.95 in 3.0 mi NNE 4.6 mph - N/A   Haze
11:13 AM 44.6 °F 42.2 °F 39.2 °F 81% 29.92 in 3.0 mi NE 4.6 mph - N/A Rain Light Rain
11:33 AM 44.6 °F 42.2 °F 41.0 °F 87% 29.92 in 3.0 mi NE 4.6 mph - N/A Rain Light Rain
11:53 AM 46.4 °F 43.5 °F 41.0 °F 81% 29.92 in 3.0 mi NNE 5.8 mph - N/A   Haze
12:13 PM 46.4 °F 43.5 °F 41.0 °F 81% 29.92 in 4.0 mi NE 5.8 mph - N/A   Haze
12:33 PM 46.4 °F 44.3 °F 41.0 °F 81% 29.92 in 4.0 mi NNE 4.6 mph - N/A   Haze
12:53 PM 46.4 °F 45.2 °F 42.8 °F 87% 29.92 in 5.0 mi NE 3.5 mph - N/A   Haze
1:13 PM 48.2 °F - 42.8 °F 82% 29.90 in 5.0 mi NE 3.5 mph - N/A   Haze
1:33 PM 50.0 °F - 42.8 °F 76% 29.90 in 5.0 mi ENE 4.6 mph - N/A   Haze
2:13 PM 50.0 °F - 44.6 °F 82% 29.90 in 5.0 mi ENE 5.8 mph - N/A   Haze
2:33 PM 50.0 °F - 44.6 °F 82% 29.89 in 7.0 mi NE 6.9 mph - N/A   Overcast
2:54 PM 50.0 °F - 44.6 °F 82% 29.89 in 7.0 mi NE 6.9 mph - N/A   Overcast
3:13 PM 50.0 °F - 42.8 °F 76% 29.89 in 10.0 mi NE 5.8 mph - N/A   Overcast
3:33 PM 51.8 °F - 44.6 °F 76% 29.88 in 10.0 mi NE 5.8 mph - N/A   Overcast
3:53 PM 51.8 °F - 42.8 °F 71% 29.88 in 10.0 mi NE 8.1 mph - N/A   Overcast
4:13 PM 53.6 °F - 44.6 °F 72% 29.88 in 10.0 mi NE 8.1 mph - N/A   Scattered Clouds
4:33 PM 53.6 °F - 44.6 °F 72% 29.88 in 10.0 mi NE 8.1 mph - N/A   Mostly Cloudy
4:53 PM 53.6 °F - 44.6 °F 72% 29.87 in 10.0 mi ENE 5.8 mph - N/A   Mostly Cloudy
5:13 PM 51.8 °F - 42.8 °F 71% 29.87 in 10.0 mi NE 5.8 mph - N/A   Mostly Cloudy
5:33 PM 51.8 °F - 42.8 °F 71% 29.88 in 10.0 mi NE 6.9 mph - N/A   Mostly Cloudy
5:53 PM 51.8 °F - 42.8 °F 71% 29.88 in 10.0 mi NE 6.9 mph - N/A   Mostly Cloudy
6:13 PM 51.8 °F - 42.8 °F 71% 29.88 in 10.0 mi NE 4.6 mph - N/A   Mostly Cloudy
6:33 PM 50.0 °F - 42.8 °F 76% 29.88 in 10.0 mi NE 5.8 mph - N/A   Mostly Cloudy
6:53 PM 50.0 °F - 42.8 °F 76% 29.88 in 10.0 mi NE 5.8 mph - N/A   Overcast
7:13 PM 50.0 °F - 42.8 °F 76% 29.88 in 10.0 mi East 4.6 mph - N/A   Overcast
7:33 PM 48.2 °F - 42.8 °F 82% 29.88 in 10.0 mi NE 5.8 mph - N/A   Overcast
7:53 PM 48.2 °F - 41.0 °F 76% 29.88 in 7.0 mi ENE 4.6 mph - N/A   Overcast
8:13 PM 46.4 °F 42.9 °F 41.0 °F 81% 29.87 in 7.0 mi NE 6.9 mph - N/A   Overcast
8:33 PM 46.4 °F 42.4 °F 41.0 °F 81% 29.87 in 4.0 mi NE 8.1 mph - N/A   Haze
8:53 PM 46.4 °F 42.9 °F 41.0 °F 81% 29.87 in 3.0 mi NE 6.9 mph - N/A   Haze
9:13 PM 46.4 °F 44.3 °F 41.0 °F 81% 29.88 in 1.8 mi NE 4.6 mph - N/A   Haze
9:33 PM 46.4 °F 44.3 °F 41.0 °F 81% 29.88 in 2.0 mi ENE 4.6 mph - N/A   Haze
9:53 PM 46.4 °F 43.5 °F 41.0 °F 81% 29.87 in 2.0 mi ENE 5.8 mph - N/A   Haze
10:13 PM 46.4 °F 43.5 °F 41.0 °F 81% 29.86 in 1.2 mi ENE 5.8 mph - N/A   Haze
10:33 PM 46.4 °F 42.9 °F 41.0 °F 81% 29.85 in 1.0 mi NE 6.9 mph - N/A   Haze
11:13 PM 44.6 °F 40.7 °F 41.0 °F 87% 29.84 in 1.0 mi NE 6.9 mph - N/A   Haze
11:33 PM 44.6 °F 40.7 °F 41.0 °F 87% 29.85 in 1.2 mi NE 6.9 mph - N/A   Haze
11:53 PM 44.6 °F 41.4 °F 41.0 °F 87% 29.85 in 1.2 mi NE 5.8 mph - N/A   Overcast